Home > Time Zones > World Clock > Weather > Iran > Ahvaz > Past weeks

Flag for Iran Weather past 2 weeks in Ahvaz, Iran

Now
104 °F

Clear.


Feels Like: 99 °F
Forecast: 83 / 107 °F
Wind: 14 mph from North

Location: Ahwaz

Current Time: May 25, 2015 at 4:40:45 PM

Latest Report: May 25, 2015 at 4:00 PM


Visibility: 5 mi

Pressure: 29.71 "Hg

Humidity: 12%

Dew point: 41 °F

Location of AhvazLocation

Historic Weather in Ahvaz — Graph

°F

Ahvaz temperature yesterday

Maximum temperature yesterday: 109 °F (at 4:30 PM)
Minimum temperature yesterday: 82 °F (at 5:30 AM)
Average temperature yesterday: 97 °F

Past Weeks' High & Low Weather Summary

 TemperatureHumidityPressure
High113 °F (May 23, 4:00 PM)58% (May 11, 6:30 AM)29.95 "Hg (May 11, 6:30 AM)
Low70 °F (May 22, 4:30 AM)6% (May 18, 5:00 PM)29.59 "Hg (May 10, 6:00 PM)
Average94 °F24%29.73 "Hg
* Reported May 10 3:30 PM — May 25 3:30 PM, Ahvaz, Weather by CustomWeather, © 2015

Note: Actual official high and low records may vary slightly from our data, if they occured in-between our weather recording intervals... More about our weather records

Advertising

Ahvaz weather history for previous 24 hours

 ConditionsComfort  
Time TempWeatherWind HumidityBarometerVisibility
3:30 PM
Mon, May 25
104 °FClear.12 mph12%29.74 "Hg5 mi
2:55 PM104 °FSunny.12 mph12%29.74 "Hg10 mi
2:30 PM104 °FSunny.7 mph12%29.74 "Hg10 mi
2:00 PM104 °FSunny.7 mph12%29.77 "Hg10 mi
1:30 PM104 °FSunny.14 mph12%29.77 "Hg10 mi
1:00 PM102 °FSunny.12 mph14%29.77 "Hg10 mi
12:30 PM102 °FSunny.9 mph12%29.80 "Hg10 mi
12:00 PM100 °FSunny.9 mph14%29.80 "Hg10 mi
11:30 AM99 °FSunny.12 mph16%29.80 "Hg10 mi
11:00 AM97 °FSunny.12 mph20%29.80 "Hg10 mi
10:30 AM95 °FSunny.9 mph22%29.80 "Hg10 mi
10:00 AM95 °FSunny.5 mph20%29.80 "Hg10 mi
9:30 AM93 °FSunny.7 mph21%29.80 "Hg10 mi
9:00 AM90 °FSunny.5 mph26%29.77 "Hg10 mi
8:30 AM88 °FClear.2 mph27%29.77 "Hg5 mi
8:00 AM86 °FClear.2 mph29%29.77 "Hg5 mi
7:30 AM84 °FClear.5 mph31%29.77 "Hg5 mi
6:30 AM84 °FClear.2 mph29%29.74 "Hg10 mi
5:30 AM86 °FClear.No wind27%29.74 "Hg10 mi
4:30 AM86 °FClear.2 mph27%29.74 "Hg10 mi
3:30 AM86 °FClear.5 mph27%29.74 "Hg10 mi
2:30 AM86 °FClear.No wind33%29.74 "Hg10 mi
1:30 AM90 °FClear.5 mph24%29.74 "Hg10 mi
1:00 AM91 °FPassing clouds.5 mph21%29.74 "HgN/A
12:30 AM91 °FPassing clouds.5 mph24%29.71 "HgN/A
12:00 AM93 °FClear.7 mph23%29.71 "Hg10 mi
11:30 PM
Sun, May 24
93 °FClear.9 mph20%29.71 "Hg10 mi
11:00 PM95 °FClear.7 mph19%29.71 "Hg10 mi
10:30 PM97 °FClear.9 mph18%29.71 "Hg10 mi
10:00 PM97 °FPassing clouds.9 mph18%29.71 "HgN/A
9:30 PM97 °FPartly sunny.9 mph18%29.71 "HgN/A
9:00 PM99 °FPartly sunny.9 mph16%29.71 "HgN/A
8:30 PM99 °FThundershowers. Partly sunny.12 mph16%29.71 "HgN/A
8:00 PM99 °FPartly sunny.9 mph16%29.68 "HgN/A
7:30 PM100 °FPartly sunny.12 mph15%29.68 "HgN/A
7:00 PM102 °FPartly sunny.14 mph13%29.68 "HgN/A
6:30 PM104 °FPartly sunny.16 mph12%29.68 "HgN/A
6:00 PM106 °FScattered clouds.14 mph10%29.68 "HgN/A
5:30 PM106 °FScattered clouds.12 mph11%29.68 "HgN/A
5:00 PM108 °FPassing clouds.9 mph12%29.68 "HgN/A
4:30 PM109 °FPassing clouds.7 mph11%29.68 "HgN/A
4:00 PM108 °FSunny.5 mph11%29.68 "Hg10 mi
Weather by CustomWeather, © 2015

See weather overviewHow to use our weather pages